This is the latest recevied weather packets stored in our database for station/object WX6HNX-2. If no packets are shown the sender has not sent any weather packets the latest 10 day(s).
| Time | Temp. | Humidity | Pressure | Rain* | Wind** | Luminosity | Snow |
|---|---|---|---|---|---|---|---|
| 1777480792 | 16.67° C | 59% | 1018 hPa | 0 mm | - | - | - |
| 1777480552 | 16.67° C | 63% | 1018 hPa | 0 mm | - | - | - |
| 1777480072 | 16.11° C | 65% | 1018.1 hPa | 0 mm | - | - | - |
| 1777479593 | 15.56° C | 66% | 1018.2 hPa | 0 mm | - | - | - |
| 1777479112 | 15.56° C | 68% | 1018.4 hPa | 0 mm | - | - | - |
| 1777478872 | 15.56° C | 68% | 1018.4 hPa | 0 mm | - | - | - |
| 1777478633 | 15° C | 70% | 1018.5 hPa | 0 mm | - | - | - |
| 1777478392 | 14.44° C | 71% | 1018.5 hPa | 0 mm | - | - | - |
| 1777478153 | 13.89° C | 72% | 1018.6 hPa | 0 mm | - | - | - |
| 1777477912 | 13.89° C | 74% | 1018.5 hPa | 0 mm | - | - | - |
| 1777477672 | 13.33° C | 74% | 1018.6 hPa | 0 mm | - | - | - |
| 1777477432 | 13.33° C | 71% | 1018.6 hPa | 0 mm | - | - | - |
| 1777477192 | 12.78° C | 73% | 1018.6 hPa | 0 mm | - | - | - |
| 1777476952 | 12.78° C | 73% | 1018.7 hPa | 0 mm | - | - | - |
| 1777476712 | 12.78° C | 74% | 1018.7 hPa | 0 mm | - | - | - |
| 1777476232 | 12.22° C | 74% | 1018.6 hPa | 0 mm | - | - | - |
| 1777475992 | 12.22° C | 78% | 1018.7 hPa | 0 mm | - | - | - |
| 1777475753 | 11.67° C | 77% | 1018.7 hPa | 0 mm | - | - | - |
| 1777475512 | 11.67° C | 81% | 1018.8 hPa | 0 mm | - | - | - |
| 1777475272 | 11.11° C | 82% | 1018.8 hPa | 0 mm | - | - | - |
| 1777474792 | 10.56° C | 86% | 1018.8 hPa | 0 mm | - | - | - |
| 1777474139 | 8.89° C | 89% | 1018.8 hPa | 0 mm | - | - | - |
| 1777473899 | 8.33° C | 90% | 1018.8 hPa | 0 mm | - | - | - |
| 1777473419 | 7.22° C | 92% | 1018.7 hPa | 0 mm | - | - | - |
| 1777473179 | 6.67° C | 92% | 1018.6 hPa | 0 mm | - | - | - |
* Rain latest hour (hover to see other rain measurements)
** Current wind speed in m/s (hover to see current wind gust speed)